Viroqua, WI

12:42 PM CDT on May 29, 2017 (GMT -0500)
Viroqua

Weather History for KY51 - September, 2013

Change the Weather History Date:

Thursday, September 19, 2013

  Actual Average (KCMY) Record (KCMY)
Temperature  
Mean Temperature 74 °F -  
Max Temperature 81 °F 73 °F 90 °F (1948)
Min Temperature 67 °F 48 °F 30 °F (1991)
Cooling Degree Days 10    
Growing Degree Days 24 (Base 50)    
Moisture  
Dew Point 69 °F    
Average Humidity 89    
Maximum Humidity 100    
Minimum Humidity 66    
Precipitation  
Precipitation 0.25 in - - ()
Sea Level Pressure  
Sea Level Pressure 29.80 in    
Wind  
Wind Speed 9 mph (South)    
Max Wind Speed 16 mph    
Max Gust Speed 22 mph    
Visibility 8 miles    
Events      
Averages and records for this station are not official NWS values.
T = Trace of Precipitation, MM = Missing Value Source: NWS Daily Summary

Daily Weather History Graph

Daily Weather History Graph

Search for Another Location

Airport or City:

Trip Planner

Search our weather history database for the weather conditions in past years. The results will help you decide how hot, cold, wet, or windy it might be!

Date:

Astronomy

Sep. 19, 2013 Rise Set
Actual Time 6:47 AM CDT 7:05 PM CDT
Civil Twilight 6:19 AM CDT 7:34 PM CDT
Nautical Twilight 5:45 AM CDT 8:08 PM CDT
Astronomical Twilight 5:10 AM CDT 8:42 PM CDT
Moon 7:01 PM CDT (9/19) 6:58 AM CDT (9/19)
Length of Visible Light 13h 15m
Length of Day
12h 18m
Full, 100% of the Moon is Illuminated
Sep 19
Full
Sep 26
Last Quarter
Oct 4
New
Oct 11
First Quarter
Oct 18
Full

Hourly Weather History & Observations

Time (CDT) Temp. Heat Index Dew Point Humidity Pressure Visibility Wind Dir Wind Speed Gust Speed Precip Events Conditions
12:15 AM 71.6 °F - 69.4 °F 93% 29.85 in 10.0 mi South 10.4 mph 16.1 mph N/A   Clear
12:35 AM 71.6 °F - 69.4 °F 93% 29.84 in 10.0 mi South 9.2 mph - N/A   Clear
12:55 AM 71.6 °F - 69.4 °F 93% 29.84 in 10.0 mi South 10.4 mph - N/A   Clear
1:15 AM 71.8 °F - 69.3 °F 92% 29.85 in 10.0 mi South 6.9 mph - N/A   Clear
1:35 AM 71.6 °F - 69.3 °F 92% 29.85 in 10.0 mi South 9.2 mph - N/A   Clear
1:55 AM 70.9 °F - 69.3 °F 95% 29.85 in 10.0 mi South 8.1 mph - N/A   Clear
2:15 AM 70.7 °F - 69.3 °F 95% 29.84 in 10.0 mi South 9.2 mph - N/A   Clear
2:35 AM 70.9 °F - 69.3 °F 95% 29.84 in 10.0 mi South 6.9 mph - N/A   Scattered Clouds
2:55 AM 70.2 °F - 69.3 °F 97% 29.84 in 7.0 mi SSW 11.5 mph 16.1 mph 0.04 in   Mostly Cloudy
3:57 AM 69.8 °F - 69.8 °F 100% 29.83 in 5.0 mi SE 5.8 mph - N/A   Mostly Cloudy
4:35 AM 69.8 °F - 69.8 °F 100% 29.83 in 7.0 mi SSE 5.8 mph - N/A   Scattered Clouds
4:55 AM 69.8 °F - 69.8 °F 100% 29.82 in 7.0 mi SE 8.1 mph - N/A   Scattered Clouds
5:18 AM 69.8 °F - 69.8 °F 100% 29.81 in 7.0 mi SSE 9.2 mph - N/A   Scattered Clouds
5:37 AM 69.8 °F - 69.8 °F 100% 29.82 in 4.0 mi South 16.1 mph - 0.09 in   Mostly Cloudy
6:17 AM 69.8 °F - 69.8 °F 100% 29.83 in 7.0 mi SSE 9.2 mph - N/A   Overcast
6:55 AM 68.9 °F - 68.9 °F 100% 29.83 in 7.0 mi South 8.1 mph - N/A   Mostly Cloudy
7:15 AM 68.5 °F - 68.5 °F 100% 29.83 in 5.0 mi SSE 6.9 mph - N/A   Mostly Cloudy
7:35 AM 68.5 °F - 68.5 °F 100% 29.82 in 5.0 mi SSE 6.9 mph - N/A   Mostly Cloudy
7:55 AM 68.4 °F - 68.4 °F 100% 29.81 in 4.0 mi SSE 8.1 mph - N/A   Scattered Clouds
8:15 AM 70.2 °F - 69.6 °F 98% 29.82 in 7.0 mi SSE 5.8 mph - N/A   Clear
8:35 AM 71.6 °F - 70.3 °F 96% 29.82 in 7.0 mi SSE 9.2 mph - N/A   Clear
8:55 AM 72.5 °F - 69.8 °F 91% 29.82 in 10.0 mi South 13.8 mph 20.7 mph N/A   Clear
9:15 AM 73.6 °F - 69.8 °F 88% 29.83 in 10.0 mi South 10.4 mph 18.4 mph N/A   Scattered Clouds
9:35 AM 74.3 °F - 70.3 °F 87% 29.83 in 10.0 mi South 13.8 mph 19.6 mph N/A   Scattered Clouds
9:55 AM 74.8 °F - 70.0 °F 85% 29.83 in 10.0 mi South 11.5 mph - N/A   Clear
10:15 AM 75.0 °F - 70.0 °F 84% 29.82 in 10.0 mi South 11.5 mph 19.6 mph N/A   Clear
10:35 AM 73.0 °F - 68.9 °F 87% 29.82 in 10.0 mi South 13.8 mph 20.7 mph N/A   Scattered Clouds
10:55 AM 72.0 °F - 69.1 °F 91% 29.82 in 10.0 mi South 10.4 mph - N/A   Scattered Clouds
11:15 AM 73.8 °F - 69.8 °F 87% 29.83 in 10.0 mi South 10.4 mph - N/A   Mostly Cloudy
11:35 AM 75.7 °F - 70.3 °F 83% 29.82 in 10.0 mi South 9.2 mph - N/A   Scattered Clouds
11:55 AM 76.5 °F - 69.4 °F 79% 29.82 in 10.0 mi South 11.5 mph 17.3 mph N/A   Scattered Clouds
12:15 PM 77.2 °F - 68.5 °F 75% 29.82 in 7.0 mi South 9.2 mph - N/A   Scattered Clouds
12:35 PM 78.1 °F - 68.5 °F 72% 29.81 in 7.0 mi SSW 11.5 mph 21.9 mph N/A   Scattered Clouds
12:55 PM 79.5 °F - 69.4 °F 71% 29.82 in 7.0 mi SSW 13.8 mph 18.4 mph N/A   Mostly Cloudy
1:15 PM 80.4 °F 83.8 °F 70.2 °F 71% 29.81 in 10.0 mi SW 11.5 mph 19.6 mph N/A   Overcast
1:35 PM 78.4 °F - 69.4 °F 74% 29.80 in 10.0 mi SSW 11.5 mph - N/A   Mostly Cloudy
1:55 PM 79.7 °F - 69.1 °F 70% 29.78 in 10.0 mi SSW 11.5 mph 17.3 mph N/A   Mostly Cloudy
2:15 PM 80.8 °F 83.8 °F 69.1 °F 67% 29.78 in 10.0 mi South 11.5 mph 16.1 mph N/A   Mostly Cloudy
2:35 PM 81.5 °F 84.8 °F 69.3 °F 66% 29.78 in 10.0 mi SSW 10.4 mph 18.4 mph N/A   Mostly Cloudy
2:55 PM 79.5 °F - 68.5 °F 69% 29.78 in 10.0 mi SSW 11.5 mph 20.7 mph N/A   Mostly Cloudy
3:15 PM 79.2 °F - 70.9 °F 76% 29.77 in 7.0 mi SW 8.1 mph - N/A   Overcast
3:35 PM 78.1 °F - 70.2 °F 77% 29.76 in 10.0 mi SSW 6.9 mph - N/A   Overcast
3:55 PM 76.5 °F - 70.5 °F 82% 29.75 in 10.0 mi WSW 4.6 mph - N/A   Mostly Cloudy
4:15 PM 75.6 °F - 70.2 °F 83% 29.76 in 10.0 mi SSW 8.1 mph - N/A   Scattered Clouds
4:35 PM 75.7 °F - 69.8 °F 82% 29.75 in 10.0 mi SSW 6.9 mph - N/A   Scattered Clouds
4:55 PM 74.7 °F - 70.0 °F 85% 29.73 in 10.0 mi Calm Calm - N/A   Mostly Cloudy
5:15 PM 75.2 °F - 69.3 °F 82% 29.71 in 10.0 mi South 8.1 mph - N/A   Scattered Clouds
5:35 PM 74.1 °F - 69.8 °F 86% 29.73 in 10.0 mi SSW 8.1 mph - N/A   Clear
5:55 PM 74.5 °F - 69.4 °F 84% 29.74 in 10.0 mi South 8.1 mph - N/A   Clear
6:15 PM 72.5 °F - 68.5 °F 87% 29.75 in 10.0 mi South 6.9 mph - N/A   Clear
6:35 PM 71.6 °F - 69.8 °F 94% 29.76 in 10.0 mi South 9.2 mph - N/A   Clear
6:55 PM 70.9 °F - 67.1 °F 88% 29.76 in 10.0 mi SSW 10.4 mph - N/A   Scattered Clouds
7:15 PM 70.2 °F - 66.7 °F 89% 29.77 in 10.0 mi SSW 10.4 mph - N/A   Scattered Clouds
7:35 PM 70.3 °F - 66.7 °F 88% 29.77 in 10.0 mi SW 9.2 mph - N/A   Mostly Cloudy
7:55 PM 70.7 °F - 67.1 °F 88% 29.78 in 10.0 mi SW 10.4 mph - N/A   Mostly Cloudy
8:15 PM 70.9 °F - 68.0 °F 91% 29.78 in 10.0 mi WSW 10.4 mph - N/A   Mostly Cloudy
8:35 PM 69.8 °F - 69.3 °F 98% 29.78 in 7.0 mi WSW 4.6 mph - 0.02 in   Overcast
8:55 PM 69.8 °F - 69.6 °F 99% 29.78 in 7.0 mi SSW 3.5 mph - 0.04 in   Overcast
9:15 PM 69.4 °F - 69.4 °F 100% 29.76 in 4.0 mi Calm Calm - 0.05 in   Overcast
9:35 PM 68.9 °F - 68.9 °F 100% 29.73 in 4.0 mi NNE 4.6 mph - 0.07 in   Overcast
9:55 PM 68.7 °F - 68.7 °F 100% 29.76 in 5.0 mi West 4.6 mph - 0.08 in   Overcast
10:15 PM 68.5 °F - 68.5 °F 100% 29.79 in 10.0 mi West 3.5 mph - N/A   Overcast
10:35 PM 68.4 °F - 68.4 °F 100% 29.80 in 7.0 mi West 4.6 mph - N/A   Overcast
10:55 PM 68.2 °F - 68.2 °F 100% 29.80 in 5.0 mi West 3.5 mph - N/A   Overcast
11:15 PM 68.2 °F - 68.2 °F 100% 29.79 in 5.0 mi Calm Calm - N/A   Overcast
11:35 PM 68.0 °F - 68.0 °F 100% 29.78 in 7.0 mi Calm Calm - N/A   Overcast
11:55 PM 67.6 °F - 67.6 °F 100% 29.78 in 5.0 mi Calm Calm - N/A   Overcast